This demonstration page uses our WeatherBlox Daily Observations layout. Learn more.

Left ArrowRight Arrow

Hourly Observations for January 20, 2015

Temp ( °F °C ) Dew Point ( °F °C ) Humidity (%) Winds ( mph kmh ) Pressure ( in mb ) Visibility ( mi km ) Precip ( " mm )
12:15 am 00:15 Clear 34 1 34 1 100 100 NE 5 7 29.97 1015 10 16.0934 N/A
12:36 am 00:36 Clear 34 1 34 1 100 100 ENE 3 6 29.97 1015 7 11.26538 N/A
12:55 am 00:55 Clear 34 1 34 1 100 100 E 5 7 29.97 1015 7 11.26538 N/A
1:15 am 01:15 Clear 34 1 34 1 100 100 E 5 7 29.97 1015 7 11.26538 N/A
1:35 am 01:35 Partly Cloudy 34 1 34 1 100 100 ENE 5 7 29.94 1014 7 11.26538 N/A
1:55 am 01:55 Partly Cloudy 34 1 34 1 100 100 E 5 7 29.94 1014 10 16.0934 N/A
2:15 am 02:15 Partly Cloudy 34 1 34 1 100 100 ESE 6 9 29.94 1014 10 16.0934 N/A
2:35 am 02:35 Partly Cloudy 34 1 32 0 93 93 SE 7 11 29.94 1014 10 16.0934 N/A
2:55 am 02:55 Partly Cloudy 36 2 30 -1 81 81 Calm 29.91 1013 10 16.0934 N/A
3:16 am 03:16 Partly Cloudy 34 1 30 -1 87 87 Calm 29.94 1014 10 16.0934 N/A
3:35 am 03:35 Partly Cloudy 34 1 34 1 100 100 Calm 29.94 1014 7 11.26538 N/A
3:55 am 03:55 Mostly Cloudy 34 1 34 1 100 100 Calm 29.94 1014 10 16.0934 N/A
4:16 am 04:16 Partly Cloudy 34 1 32 0 93 93 Calm 29.94 1014 10 16.0934 N/A
4:35 am 04:35 Partly Cloudy 34 1 30 -1 87 87 Calm 29.94 1014 10 16.0934 N/A
4:55 am 04:55 Partly Cloudy 34 1 32 0 93 93 ESE 3 6 29.94 1014 10 16.0934 N/A
5:16 am 05:16 Partly Cloudy 34 1 30 -1 87 87 SE 3 6 29.94 1014 10 16.0934 N/A
5:35 am 05:35 Partly Cloudy 34 1 32 0 93 93 Calm 29.94 1014 10 16.0934 N/A
5:55 am 05:55 Partly Cloudy 34 1 32 0 93 93 Calm 29.94 1014 10 16.0934 N/A
6:15 am 06:15 Mostly Cloudy 34 1 32 0 93 93 N 6 9 29.94 1014 7 11.26538 N/A
6:35 am 06:35 Mostly Cloudy 34 1 34 1 100 100 ENE 3 6 29.94 1014 7 11.26538 N/A
6:56 am 06:56 Mostly Cloudy 32 0 32 0 100 100 ESE 3 6 29.94 1014 7 11.26538 N/A
7:15 am 07:15 Mostly Cloudy 34 1 34 1 100 100 SE 6 9 29.94 1014 10 16.0934 N/A
7:35 am 07:35 Cloudy 34 1 34 1 100 100 SE 5 7 29.94 1014 10 16.0934 N/A
7:55 am 07:55 Cloudy 34 1 34 1 100 100 SE 5 7 29.94 1014 10 16.0934 N/A
8:15 am 08:15 Cloudy 36 2 30 -1 81 81 SE 3 6 29.91 1013 10 16.0934 N/A
8:36 am 08:36 Mostly Cloudy 36 2 27 -3 70 70 Calm 29.91 1013 10 16.0934 N/A
8:55 am 08:55 Mostly Cloudy 36 2 27 -3 70 70 SSE 3 6 29.91 1013 10 16.0934 N/A
9:16 am 09:16 Partly Cloudy 36 2 28 -2 75 75 SSE 5 7 29.91 1013 7 11.26538 N/A
9:36 am 09:36 Partly Cloudy 36 2 27 -3 70 70 SSE 7 11 29.91 1013 10 16.0934 N/A
9:55 am 09:55 Partly Cloudy 39 4 27 -3 61 61 SSE 5 7 29.94 1014 10 16.0934 N/A
10:15 am 10:15 Sunny 41 5 27 -3 57 57 S 6 9 29.94 1014 10 16.0934 N/A
10:55 am 10:55 Sunny 43 6 27 -3 53 53 S 9 15 29.94 1014 10 16.0934 N/A
11:16 am 11:16 Sunny 43 6 27 -3 53 53 S 7 11 29.94 1014 10 16.0934 N/A
11:35 am 11:35 Sunny 45 7 28 -2 53 53 SSW 6 9 29.94 1014 10 16.0934 N/A
11:55 am 11:55 Sunny 45 7 28 -2 53 53 S 5 7 29.94 1014 10 16.0934 N/A
12:16 pm 12:16 Sunny 46 8 27 -3 46 46 SSE 3 6 29.94 1014 10 16.0934 N/A
12:35 pm 12:35 Sunny 48 9 27 -3 43 43 SSW 5 7 29.91 1013 10 16.0934 N/A
12:55 pm 12:55 Sunny 48 9 25 -4 40 40 SW 6 9 29.91 1013 10 16.0934 N/A
1:15 pm 13:15 Sunny 50 10 25 -4 37 37 W 7 11 29.91 1013 10 16.0934 N/A
1:35 pm 13:35 Sunny 50 10 25 -4 37 37 WSW 9 15 29.91 1013 10 16.0934 N/A
1:56 pm 13:56 Sunny 50 10 27 -3 40 40 WSW 6 9 29.91 1013 10 16.0934 N/A
2:15 pm 14:15 Sunny 50 10 25 -4 37 37 WSW 7 11 29.91 1013 10 16.0934 N/A
2:35 pm 14:35 Sunny 52 11 27 -3 38 38 W 10 17 29.88 1012 10 16.0934 N/A
2:55 pm 14:55 Sunny 52 11 25 -4 35 35 W 8 13 29.88 1012 10 16.0934 N/A
3:15 pm 15:15 Sunny 52 11 25 -4 35 35 WSW 6 9 29.88 1012 10 16.0934 N/A
3:36 pm 15:36 Partly Cloudy 52 11 27 -3 38 38 SW 7 11 29.88 1012 10 16.0934 N/A
3:55 pm 15:55 Mostly Cloudy 48 9 27 -3 43 43 W 8 13 29.91 1013 10 16.0934 N/A
4:15 pm 16:15 Mostly Cloudy 50 10 28 -2 43 43 WNW 9 15 29.91 1013 10 16.0934 N/A
4:35 pm 16:35 Mostly Cloudy 46 8 28 -2 50 50 WNW 7 11 29.94 1014 10 16.0934 N/A
4:55 pm 16:55 Partly Cloudy 46 8 28 -2 50 50 WNW 9 15 29.94 1014 10 16.0934 N/A
5:15 pm 17:15 Sunny 45 7 27 -3 49 49 WNW 12 19 29.94 1014 10 16.0934 N/A
5:35 pm 17:35 Sunny 43 6 28 -2 57 57 WNW 10 17 29.97 1015 10 16.0934 N/A
5:55 pm 17:55 Clear 41 5 28 -2 61 61 NW 6 9 29.97 1015 10 16.0934 N/A
6:16 pm 18:16 Clear 41 5 28 -2 61 61 NW 8 13 29.97 1015 10 16.0934 N/A
6:35 pm 18:35 Partly Cloudy 39 4 28 -2 65 65 WNW 7 11 30 1016 10 16.0934 N/A
6:55 pm 18:55 Clear 39 4 28 -2 65 65 WNW 6 9 30 1016 10 16.0934 N/A
7:15 pm 19:15 Clear 37 3 28 -2 70 70 NW 5 7 30 1016 10 16.0934 N/A
7:35 pm 19:35 Clear 37 3 28 -2 70 70 NW 5 7 30 1016 10 16.0934 N/A
7:56 pm 19:56 Clear 37 3 30 -1 75 75 NW 5 7 30 1016 10 16.0934 N/A
8:15 pm 20:15 Clear 36 2 30 -1 81 81 Calm 30.03 1017 10 16.0934 N/A
8:35 pm 20:35 Clear 36 2 36 2 100 100 NW 3 6 30.03 1017 10 16.0934 N/A
8:56 pm 20:56 Mostly Cloudy 36 2 36 2 100 100 W 6 9 30.03 1017 10 16.0934 N/A
9:15 pm 21:15 Cloudy 37 3 37 3 100 100 NW 8 13 30 1016 10 16.0934 N/A
9:35 pm 21:35 Cloudy 37 3 37 3 100 100 WNW 8 13 30.03 1017 7 11.26538 N/A
9:55 pm 21:55 Cloudy 36 2 36 2 100 100 WNW 6 9 30.03 1017 7 11.26538 N/A
10:15 pm 22:15 Mostly Cloudy 36 2 36 2 100 100 Calm 30.03 1017 7 11.26538 N/A
10:35 pm 22:35 Mostly Cloudy 36 2 36 2 100 100 Calm 30.03 1017 7 11.26538 N/A
10:55 pm 22:55 Mostly Cloudy 36 2 36 2 100 100 WNW 3 6 30.06 1018 7 11.26538 N/A
11:15 pm 23:15 Mostly Cloudy 36 2 36 2 100 100 WNW 5 7 30.06 1018 7 11.26538 N/A
11:35 pm 23:35 Cloudy 36 2 36 2 100 100 Calm 30.06 1018 7 11.26538 N/A
11:55 pm 23:55 Cloudy 36 2 36 2 100 100 WNW 5 7 30.06 1018 5 8.0467 N/A

Powered by AerisWeather